[[{"header":{"parameterUnit":"m.s-1","parameterCategory":1,"la1":30.2992,"la2":30.254,"lo1":-89.0895,"lo2":-89.0443,"dy":0.0025,"dx":0.0025,"nx":19,"ny":19,"refTime":"2026-03-20T21:00:00:Z","depth":0,"parameterNumber":2,"parameterNumberName":"U-component_of_WINDS"},"data":[0,0,0,1.9636,1.964,1.986,1.9861,2.012,2.0122,0,0,0,0,0,0,0,0,0,0,0,1.9552,1.9553,1.9635,1.964,1.986,1.9861,2.012,2.0122,0,0,0,0,0,0,0,0,0,0,0,1.9552,1.9553,1.9555,1.9641,1.986,1.9861,2.0119,1.9962,0,0,0,0,0,0,0,0,0,0,1.9753,1.9657,1.9553,1.9555,1.9642,1.9859,1.9861,1.9955,1.9972,2.001,0,2.0034,0,2.0082,2.0138,2.0138,0,0,0,1.9655,1.9643,1.9718,1.9555,1.9644,1.9859,1.9765,1.9965,1.9984,2.0032,2.0038,2.0048,2.0086,2.0139,2.014,2.03,2.03,0,0,1.9643,1.9583,1.9705,1.973,1.9689,1.9758,1.9772,1.9977,1.9981,2.0039,2.0055,2.009,2.0141,2.0142,2.03,2.03,0,0,0,1.9598,1.9574,1.9645,1.9718,1.9759,1.9764,1.978,1.9972,2.0,2.0058,2.0093,2.0142,2.0145,2.03,2.03,2.0243,0,0,0,1.9592,1.9548,1.9639,1.9604,1.9755,1.9867,1.9769,1.9986,2.0011,2.0092,2.0142,2.0147,2.03,2.03,2.0244,2.0225,0,0,0,1.9545,1.9543,1.9568,1.9601,1.9693,1.9865,1.9906,1.9993,2.0032,2.0139,2.0148,2.03,2.03,2.0246,2.0228,2.025,0,0,0,1.9478,1.9514,1.9566,1.9622,1.969,1.9827,1.9905,2.0011,2.0096,2.0143,2.03,2.03,2.0246,2.0229,2.0251,2.0257,2.0253,0,0,1.949,1.9513,1.9552,1.9604,1.9716,1.9799,1.9906,2.0041,2.0109,2.0234,2.0238,2.0244,2.0228,2.025,2.0258,2.0255,0,0,0,1.9535,1.9561,1.9605,1.9681,1.9785,1.9874,2.0,2.0052,2.016,2.0159,2.026,2.0253,2.0269,2.0274,2.0272,2.029,2.03,2.03,2.03,1.9465,1.9548,1.9618,1.9728,1.9803,1.9934,2.0003,2.0096,2.0159,2.0182,2.0218,2.0212,2.0217,2.0215,2.0233,2.0229,2.0229,2.0229,2.0229,1.9491,1.9542,1.9627,1.9723,1.9813,1.9898,2.0029,2.0071,2.0165,2.0191,2.0209,2.0228,2.0209,2.0229,2.0226,2.0226,2.0227,2.0227,2.0227,1.9453,1.9492,1.9554,1.9676,1.9762,1.9876,1.9963,2.0043,2.0119,2.0137,2.0186,2.0188,2.0199,2.0155,2.0155,2.0155,2.0155,2.0155,2.0155,1.9388,1.946,1.9521,1.9637,1.9699,1.9792,1.9928,1.9994,2.0087,2.0139,2.0139,2.0201,2.0191,2.0186,2.0155,2.0155,2.0155,2.0155,2.0155,1.938,1.9396,1.9489,1.9551,1.9698,1.978,1.9883,2.001,2.0076,2.0117,2.0178,2.0157,2.0187,2.019,2.0187,2.0158,2.0158,2.0158,2.0158,1.9346,1.937,1.9486,1.9581,1.9684,1.9788,1.9897,2.0007,2.0123,2.0171,2.0188,2.0191,2.019,2.0221,2.0223,2.0221,2.0202,2.0202,2.0202,1.9347,1.9385,1.9459,1.957,1.9692,1.9797,1.9904,2.0014,2.015,2.0206,2.021,2.0208,2.0215,2.0212,2.0263,2.0265,2.0263,0,0]},{"header":{"parameterUnit":"m.s-1","parameterCategory":1,"la1":30.2992,"la2":30.254,"lo1":-89.0895,"lo2":-89.0443,"dy":0.0025,"dx":0.0025,"nx":19,"ny":19,"refTime":"2026-03-20T21:00:00:Z","depth":0,"parameterNumber":3,"parameterNumberName":"V-component_of_WINDS"},"data":[0,0,0,4.2048,4.2051,4.2221,4.2222,4.2421,4.2422,0,0,0,0,0,0,0,0,0,0,0,4.1988,4.1989,4.2048,4.2052,4.2221,4.2222,4.2421,4.2422,0,0,0,0,0,0,0,0,0,0,0,4.1987,4.1988,4.199,4.2052,4.2221,4.2222,4.242,4.2298,0,0,0,0,0,0,0,0,0,0,4.2137,4.2071,4.1988,4.199,4.2053,4.2221,4.2222,4.2293,4.2306,4.2337,0,4.2362,0,4.2396,4.2435,4.2435,0,0,0,4.2059,4.206,4.2115,4.199,4.2055,4.222,4.2147,4.23,4.2315,4.2354,4.2365,4.2373,4.2399,4.2436,4.2437,4.2597,4.2598,0,0,4.2049,4.2012,4.2105,4.2125,4.2098,4.2141,4.2152,4.231,4.2319,4.2366,4.2378,4.2402,4.2437,4.2439,4.2597,4.2597,0,0,0,4.2018,4.2005,4.2057,4.2116,4.2148,4.2146,4.2158,4.2312,4.2332,4.238,4.2405,4.2438,4.244,4.2596,4.2597,4.2584,0,0,0,4.2013,4.1987,4.2053,4.2031,4.2145,4.2232,4.2156,4.2321,4.234,4.2404,4.2438,4.2442,4.2596,4.2597,4.2584,4.2584,0,0,0,4.198,4.1983,4.2005,4.2029,4.2101,4.223,4.226,4.2326,4.2354,4.2436,4.2443,4.2596,4.2597,4.2583,4.2583,4.2618,0,0,0,4.1934,4.1987,4.2004,4.2073,4.2099,4.2221,4.2259,4.2351,4.2419,4.2439,4.2596,4.2597,4.2583,4.2583,4.2617,4.2641,4.2647,0,0,4.198,4.1991,4.2035,4.2055,4.2166,4.2198,4.2307,4.2403,4.2443,4.2543,4.2548,4.2584,4.2583,4.2618,4.2693,4.2698,0,0,0,4.2038,4.2069,4.2106,4.2171,4.2248,4.2315,4.2399,4.2435,4.2523,4.2487,4.2606,4.2607,4.2628,4.2642,4.2646,4.2668,4.2601,4.2601,4.2601,4.2048,4.2101,4.2178,4.2252,4.2315,4.2404,4.246,4.2524,4.2554,4.2582,4.2612,4.2652,4.2666,4.267,4.2692,4.2628,4.2628,4.2628,4.2628,4.2122,4.2176,4.2222,4.2313,4.2369,4.2446,4.2535,4.2555,4.2635,4.2632,4.2654,4.2647,4.2673,4.2696,4.2628,4.2628,4.2628,4.2628,4.2628,4.2135,4.2171,4.2217,4.232,4.2393,4.2466,4.2543,4.259,4.2633,4.2655,4.2694,4.2695,4.2702,4.2671,4.2671,4.2671,4.2671,4.2671,4.2671,4.2131,4.2184,4.2244,4.2334,4.2385,4.2457,4.2551,4.2601,4.2669,4.2697,4.2698,4.2728,4.2666,4.265,4.2674,4.2673,4.2673,4.2673,4.2672,4.2187,4.2184,4.2276,4.2327,4.244,4.2512,4.2572,4.2673,4.2722,4.2759,4.2786,4.2732,4.2745,4.2743,4.273,4.2773,4.2773,4.2773,4.2773,4.2199,4.2212,4.2321,4.24,4.2483,4.2549,4.2654,4.2729,4.2805,4.2839,4.284,4.2827,4.2822,4.2839,4.2834,4.2823,4.2888,4.2889,4.2889,4.2238,4.2262,4.2342,4.242,4.2513,4.2592,4.2693,4.2783,4.2868,4.2894,4.2867,4.2863,4.2842,4.2832,4.2856,4.2847,4.2828,0,0]}]]